TimeMST,TemperatureF,Dew PointF,Humidity,Sea Level PressureIn,VisibilityMPH,Wind Direction,Wind SpeedMPH,Gust SpeedMPH,PrecipitationIn,Events,Conditions,WindDirDegrees,DateUTC
12:53 AM,25.0,16.0,69,29.85,10.0,SE,8.1,-,N/A,,Overcast,130,2012-03-02 07:53:00
1:53 AM,26.1,16.0,66,29.81,10.0,SE,6.9,-,N/A,,Overcast,130,2012-03-02 08:53:00
2:53 AM,24.1,18.0,77,29.82,10.0,West,4.6,-,N/A,,Overcast,260,2012-03-02 09:53:00
3:53 AM,25.0,19.0,78,29.82,10.0,Calm,Calm,-,N/A,,Overcast,0,2012-03-02 10:53:00
4:53 AM,24.1,19.0,81,29.84,10.0,Calm,Calm,-,N/A,,Overcast,0,2012-03-02 11:53:00
5:53 AM,24.1,21.0,88,29.87,6.0,NNW,8.1,-,0.00,Snow,Light Snow,340,2012-03-02 12:53:00
6:25 AM,24.8,21.2,86,29.85,2.5,North,3.5,-,0.00,Snow,Light Snow,360,2012-03-02 13:25:00
6:43 AM,24.8,21.2,86,29.86,1.5,North,3.5,-,0.00,Snow,Light Snow,360,2012-03-02 13:43:00
6:51 AM,24.8,21.2,86,29.86,0.8,North,3.5,-,0.01,Snow,Light Snow,360,2012-03-02 13:51:00
6:53 AM,24.1,21.9,91,29.90,0.8,North,3.5,-,0.01,Snow,Light Snow,350,2012-03-02 13:53:00
7:12 AM,24.8,23.0,93,29.88,0.5,NNE,3.5,-,0.01,Fog-Snow,Snow,30,2012-03-02 14:12:00
7:29 AM,24.8,23.0,93,29.89,0.5,Calm,Calm,-,0.02,Fog-Snow,Snow,0,2012-03-02 14:29:00
7:50 AM,24.8,21.2,86,29.91,0.2,NW,12.7,-,0.03,Fog-Snow,Snow,320,2012-03-02 14:50:00
7:53 AM,23.0,21.0,92,29.96,0.5,NW,10.4,-,0.03,Fog-Snow,Light Snow,320,2012-03-02 14:53:00
8:01 AM,23.0,21.2,93,29.92,0.8,NW,10.4,-,0.00,Snow,Light Snow,320,2012-03-02 15:01:00
8:14 AM,24.8,21.2,86,29.93,1.2,NW,13.8,-,0.00,Snow,Light Snow,310,2012-03-02 15:14:00
8:21 AM,24.8,21.2,86,29.93,1.0,NW,10.4,-,0.00,Snow,Light Snow,310,2012-03-02 15:21:00
8:30 AM,24.8,21.2,86,29.94,0.8,NW,15.0,-,0.00,Snow,Light Snow,310,2012-03-02 15:30:00
8:53 AM,24.1,21.9,91,30.01,0.5,NW,12.7,-,0.00,Fog-Snow,Snow,320,2012-03-02 15:53:00
9:02 AM,24.8,21.2,86,29.96,0.8,NW,11.5,-,0.00,Snow,Light Snow,320,2012-03-02 16:02:00
9:04 AM,24.8,21.2,86,29.96,1.0,NW,12.7,-,0.00,Snow,Light Snow,320,2012-03-02 16:04:00
9:12 AM,24.8,21.2,86,29.96,1.8,NW,16.1,-,0.00,Snow,Light Snow,310,2012-03-02 16:12:00
9:22 AM,24.8,21.2,86,29.97,2.0,WNW,16.1,-,0.00,Snow,Light Snow,300,2012-03-02 16:22:00
9:26 AM,24.8,21.2,86,29.97,2.5,NW,19.6,-,0.00,Snow,Light Snow,310,2012-03-02 16:26:00
9:38 AM,24.8,21.2,86,29.98,1.5,WNW,17.3,24.2,0.00,Snow,Light Snow,300,2012-03-02 16:38:00
9:49 AM,26.6,21.2,80,29.99,2.0,NW,17.3,-,0.00,Snow,Light Snow,310,2012-03-02 16:49:00
9:53 AM,26.1,21.0,81,30.05,4.0,NW,16.1,-,0.00,Snow,Light Snow,320,2012-03-02 16:53:00
10:03 AM,26.6,21.2,80,30.00,10.0,NW,13.8,-,0.00,,Overcast,320,2012-03-02 17:03:00
10:53 AM,28.0,19.0,69,30.06,10.0,NW,16.1,28.8,0.00,,Overcast,320,2012-03-02 17:53:00
11:53 AM,30.0,18.0,61,30.09,10.0,WNW,15.0,-,N/A,,Mostly Cloudy,300,2012-03-02 18:53:00
12:53 PM,30.9,17.1,57,30.08,10.0,NW,20.7,31.1,N/A,,Partly Cloudy,310,2012-03-02 19:53:00
1:53 PM,32.0,18.0,56,30.08,10.0,WNW,24.2,35.7,0.01,,Clear,300,2012-03-02 20:53:00
2:53 PM,30.0,18.0,61,30.12,10.0,NW,24.2,31.1,N/A,,Scattered Clouds,320,2012-03-02 21:53:00
3:53 PM,28.9,21.0,72,30.15,10.0,NW,27.6,33.4,N/A,,Partly Cloudy,320,2012-03-02 22:53:00
4:53 PM,28.0,18.0,66,30.18,10.0,West,12.7,-,N/A,,Mostly Cloudy,280,2012-03-02 23:53:00
5:53 PM,27.0,14.0,58,30.20,10.0,WNW,12.7,-,N/A,,Clear,300,2012-03-03 00:53:00
6:53 PM,25.0,16.0,69,30.22,10.0,Calm,Calm,-,N/A,,Clear,0,2012-03-03 01:53:00
7:53 PM,21.0,12.0,68,30.27,10.0,SSE,9.2,-,N/A,,Clear,150,2012-03-03 02:53:00
8:53 PM,19.0,10.9,71,30.28,10.0,SE,10.4,-,N/A,,Clear,130,2012-03-03 03:53:00
9:53 PM,19.0,9.0,65,30.29,10.0,SE,11.5,-,N/A,,Clear,140,2012-03-03 04:53:00
10:53 PM,17.1,7.0,65,30.31,10.0,SE,10.4,-,N/A,,Clear,140,2012-03-03 05:53:00
11:53 PM,17.1,8.1,68,30.32,10.0,SSE,8.1,-,N/A,,Clear,150,2012-03-03 06:53:00